SCP
0 0 0 0 0 0 0 0 0 0 0 1 1 0 -1 -0 0 1 0 1 1 0 1 0 0 1 0 1 1 2 2 2 2 2 1 2 5 3 2 2 1 1 1
0 0 0 0 0 0 0 0 0 0 0 1 2 3 4 3 0 -1 1 1 1 1 1 1 0 1 1 2 2 2 2 2 3 3 2 2 2 4 2 1 0 1 1
0 0 0 0 0 0 0 0 0 0 0 0 0 0 2 4 3 4 4 -0 1 1 1 1 1 1 1 2 3 3 3 2 4 4 4 2 2 2 3 2 1 1 2
0 0 0 0 0 0 0 0 0 0 0 0 0 1 0 0 1 2 4 7 -2 -1 1 1 1 1 2 2 3 2 3 4 3 4 4 3 4 4 2 4 2 1 1
0 0 0 0 0 0 0 0 0 0 0 0 1 0 0 0 0 1 5 6 13 -0 1 2 1 1 1 2 3 5 7 3 2 2 4 3 2 3 4 3 1 2 0
0 0 0 0 0 0 0 0 0 0 0 0 0 0 0 1 0 1 2 2 4 5 3 0 1 1 1 3 6 7 6 3 4 2 5 3 2 2 3 2 0 1 1
0 0 0 0 0 0 0 0 0 0 0 0 0 0 0 1 1 1 0 1 1 4 8 3 2 2 1 4 7 7 6 12 8 6 4 4 3 3 2 1 1 0 1
0 0 0 0 0 0 0 0 0 0 0 0 0 0 0 0 0 0 0 0 0 1 4 7 6 5 4 4 6 8 12 12 7 6 4 4 4 3 3 1 1 0 0
0 0 0 0 0 0 0 0 0 0 0 0 0 0 0 1 0 1 2 0 1 1 1 5 7 5 6 7 9 12 12 10 7 6 4 3 4 5 2 2 0 1 0
0 0 0 0 0 0 0 0 0 0 0 0 0 0 0 0 0 1 1 2 2 2 3 4 5 8 7 7 13 10 10 9 7 5 3 3 3 5 2 2 1 1 0
0 0 0 0 0 0 0 0 0 0 0 0 0 0 0 0 0 0 1 2 3 3 3 3 5 6 8 10 11 9 7 6 7 4 3 3 3 3 2 1 1 0 0
0 0 0 0 0 0 0 0 0 0 0 0 0 0 0 0 0 0 0 1 2 2 3 3 2 5 8 10 8 6 4 5 5 3 3 3 3 2 3 2 2 1 2
0 0 0 0 0 0 0 0 0 0 0 0 0 0 0 0 0 0 0 0 1 1 2 2 2 2 3 5 5 4 4 5 4 3 2 3 3 3 3 2 2 1 1
0 0 0 0 0 0 0 0 0 0 0 0 0 0 0 0 0 0 0 0 0 1 1 2 1 1 3 3 3 3 4 6 3 3 3 2 2 2 2 2 2 2 2
0 0 0 0 0 0 0 0 0 0 0 0 0 0 0 0 0 0 0 0 0 2 1 1 1 2 2 3 3 3 5 4 3 4 3 2 1 1 1 1 1 2 1
0 0 0 0 0 0 0 0 0 0 0 0 0 0 0 0 0 0 0 0 0 2 1 1 1 1 2 2 3 4 4 2 3 4 2 2 1 1 0 0 0 0 1
0 0 0 0 0 0 0 0 0 0 0 0 0 0 0 0 0 0 0 0 1 2 1 1 2 2 2 1 2 3 4 3 4 3 2 2 1 1 1 0 0 0 0
0 0 0 0 0 0 0 0 0 0 0 0 -0 0 0 0 0 0 0 0 1 1 1 1 2 3 5 0 1 2 3 3 3 3 2 1 1 0 0 0 0 0 0
0 0 0 0 0 0 0 0 0 0 0 0 0 0 0 0 0 0 1 1 1 2 1 2 2 3 3 0 1 2 3 3 2 1 1 1 1 0 0 0 0 0 0
0 0 0 0 0 0 0 0 0 0 -0 0 0 0 0 0 0 0 0 1 1 2 2 2 2 3 3 0 0 2 2 2 2 1 1 0 1 0 0 0 0 0 0
-0 0 0 0 0 0 -0 0 0 -0 -0 -0 0 0 0 0 0 0 0 0 0 3 2 2 3 5 2 0 0 0 3 2 1 1 1 1 0 0 0 0 0 0 0
0 0 0 0 -0 0 0 0 -0 -0 -0 -0 -0 -0 0 -0 0 -0 -0 -0 1 1 2 2 4 5 2 0 0 0 1 0 1 0 1 0 0 0 0 0 0 0 0
0 0 -0 -0 0 -0 -0 -0 -0 0 -0 -0 -0 -0 0 -0 -0 -0 -0 0 1 2 3 4 5 2 2 0 0 0 0 0 1 1 0 0 0 0 0 0 0 0 0
-0 -0 0 -0 -0 -0 -0 -0 0 -0 -0 0 -0 0 -0 -0 0 -0 0 1 2 3 4 3 2 1 2 1 1 0 0 0 0 0 0 0 0 0 0 0 0 0 0
-0 0 0 -0 0 0 0 -0 -0 -0 -0 -0 -0 -0 -0 0 -0 0 1 2 2 3 2 2 2 2 1 1 1 1 0 0 0 0 0 0 0 0 0 0 0 0 0
0 0 0 0 0 0 -0 -0 -0 -0 -0 0 0 0 0 0 0 0 0 0 0 0 1 2 2 2 0 0 0 0 0 0 0 0 0 0 0 0 0 0 0 0 0
Wind_Speed_500mb
37 33 31 20 14 7 13 14 21 26 69 66 62 54 52 37 30 33 37 50 60 58 72 78 66 58 57 54 48 43 41 54 51 41 34 35 40 44 37 43 38 36 37
40 39 23 21 17 14 17 21 21 27 31 46 71 63 48 56 52 55 32 33 57 69 78 98 86 79 67 68 65 49 51 43 45 36 24 32 29 42 44 31 38 38 37
50 47 36 26 20 12 24 25 40 37 31 39 38 50 68 76 63 58 59 76 52 57 71 89 82 84 75 81 68 60 52 35 32 48 36 16 21 22 28 30 29 36 33
26 32 32 25 20 11 11 20 26 33 37 46 48 39 49 59 66 75 67 57 55 64 70 74 85 87 87 91 73 55 48 44 40 32 49 43 33 14 22 19 25 28 32
30 22 23 14 11 7 11 12 16 25 28 33 42 49 36 38 49 60 67 89 61 73 67 80 84 85 97 100 75 49 43 31 47 40 37 34 36 43 37 42 33 34 26
24 24 20 17 15 12 13 12 16 12 22 28 32 43 51 53 48 40 39 56 92 78 86 115 96 102 100 90 74 58 44 45 67 54 46 35 28 29 37 37 41 37 35
23 30 24 20 17 18 17 15 13 13 16 18 25 30 40 46 50 52 53 48 47 63 77 85 80 86 97 97 73 63 62 70 61 66 57 43 42 36 36 41 35 39 21
21 13 17 20 22 22 21 19 18 17 20 16 21 27 33 36 39 42 44 48 57 66 62 65 69 76 78 92 95 84 72 66 66 57 65 51 49 42 37 42 37 44 32
20 23 31 30 28 26 25 23 23 22 20 24 25 25 30 36 40 49 56 52 59 68 58 62 66 72 69 75 80 79 72 67 66 59 54 49 44 47 37 38 38 34 36
28 34 38 36 35 32 31 31 29 28 28 27 27 30 31 34 39 44 51 55 65 69 65 64 73 84 65 62 70 62 66 64 62 53 42 46 44 45 38 42 43 30 31
29 33 35 33 36 37 37 35 33 35 36 36 35 35 35 38 41 44 49 52 56 66 76 81 69 72 64 67 76 76 67 63 59 46 44 52 46 40 40 39 32 31 30
31 34 33 32 35 34 36 33 34 36 37 40 41 43 44 44 46 48 49 56 61 64 65 65 70 73 70 73 76 71 58 58 47 46 48 50 42 49 44 38 34 31 31
33 34 34 35 34 38 34 33 33 33 34 39 44 50 56 54 54 56 55 54 54 57 61 61 61 63 66 68 70 69 61 55 49 47 56 48 48 48 47 41 32 33 32
29 33 39 42 39 38 38 39 41 42 44 45 46 52 56 63 65 60 59 60 59 55 63 65 65 68 66 68 62 58 59 56 47 57 52 45 48 49 43 35 36 31 30
38 42 41 45 45 47 49 51 50 50 51 57 59 57 59 62 67 71 66 59 64 55 63 66 69 72 70 70 67 65 61 59 54 55 47 48 44 41 33 30 35 33 35
40 40 46 52 57 55 54 57 58 61 62 63 69 70 64 64 69 73 71 64 63 58 64 71 74 75 76 77 75 68 63 62 55 54 46 42 45 43 45 42 37 37 41
47 54 55 57 60 59 57 57 62 66 68 74 78 72 66 68 69 68 70 72 65 61 71 74 75 78 82 79 78 70 68 60 57 51 48 44 37 47 41 42 45 41 38
50 57 55 58 60 65 67 65 68 71 74 81 80 75 71 73 72 69 72 72 65 67 74 79 79 80 84 76 76 81 57 55 49 49 52 51 38 36 32 29 38 39 34
56 58 66 71 71 73 78 73 75 78 81 86 84 88 75 70 73 69 67 69 64 72 80 80 80 80 81 79 81 81 52 48 47 43 40 39 34 34 40 32 29 28 33
68 67 73 74 76 82 74 71 78 77 83 83 75 79 73 73 71 65 63 63 72 74 79 83 80 79 85 83 77 71 47 50 44 39 35 40 35 37 35 35 29 32 29
77 73 72 76 78 76 75 72 72 81 82 79 85 80 75 69 67 63 69 65 70 75 81 81 77 75 79 77 75 66 52 47 45 38 33 38 46 36 30 35 32 30 30
80 78 81 81 77 67 60 69 79 79 75 68 72 70 68 66 64 71 76 74 63 84 80 76 72 71 69 79 77 67 51 46 43 36 35 35 39 35 30 34 34 30 30
83 82 83 85 82 73 71 77 72 70 66 69 71 80 81 78 91 76 75 73 77 78 74 79 83 72 87 88 84 66 52 46 41 40 39 36 33 35 34 35 30 25 24
82 76 76 68 67 66 58 65 70 67 64 74 77 78 80 63 65 88 77 75 78 89 79 85 77 76 92 92 83 72 55 58 44 33 37 33 33 34 35 34 32 28 28
70 64 62 61 58 58 56 56 60 56 62 67 73 71 103 126 99 91 77 88 87 87 72 68 79 94 95 95 79 73 52 41 36 42 34 34 36 36 34 32 32 29 27
59 58 55 56 60 53 51 52 52 54 60 66 60 66 51 57 100 91 82 77 69 65 64 71 75 67 78 74 66 62 49 46 39 30 29 36 39 37 35 33 30 26 21
Wind_Direction_500mb
234 212 202 225 228 191 254 239 226 207 215 251 246 252 254 244 242 232 236 236 257 251 242 241 248 249 232 230 234 245 246 256 265 273 276 271 271 296 284 251 254 255 248
221 223 227 233 235 251 256 256 253 235 218 220 241 227 228 239 262 270 241 249 244 249 251 251 254 253 236 231 233 250 249 248 254 256 266 275 277 269 280 259 243 251 252
231 221 230 235 231 217 244 252 249 248 248 246 247 253 244 241 237 237 252 251 267 274 265 256 249 248 239 228 232 245 241 232 238 266 250 265 258 284 248 239 237 247 254
216 225 221 217 227 205 234 251 256 257 244 240 246 255 251 247 244 252 250 243 275 283 283 264 258 241 237 225 232 241 248 251 241 239 262 249 242 274 270 235 248 228 240
200 213 220 217 219 220 234 234 257 265 268 256 249 253 258 256 253 247 241 242 253 271 275 278 263 245 234 229 223 239 238 253 265 240 240 261 250 249 261 275 255 221 234
205 205 214 232 227 227 230 236 252 253 265 263 258 258 260 261 257 249 256 243 232 252 254 264 253 243 238 226 235 225 249 274 258 248 232 234 239 238 243 258 259 255 248
230 226 230 252 252 262 253 253 245 266 273 261 261 264 267 264 261 253 241 240 242 242 239 249 251 235 236 231 226 236 253 261 248 242 242 232 238 244 250 263 258 263 229
234 233 258 268 272 267 269 266 270 276 278 285 269 256 259 264 264 266 259 249 246 244 244 248 248 240 232 238 237 243 240 254 249 242 252 224 235 235 244 253 253 257 257
248 258 267 270 268 268 270 269 278 279 282 283 284 275 264 262 261 256 247 250 250 241 239 246 246 249 244 240 243 239 243 246 242 246 246 233 233 236 240 243 237 254 269
264 272 276 275 271 269 268 268 270 277 279 281 279 278 271 268 263 261 271 267 256 246 241 240 246 251 246 236 232 233 237 238 237 242 238 231 224 236 230 233 230 249 253
281 288 284 279 276 270 268 268 271 277 280 282 280 280 276 271 269 267 263 253 264 265 251 248 241 248 243 227 234 237 234 230 233 232 223 228 221 224 223 218 226 238 243
286 282 282 283 284 279 271 267 272 277 282 284 286 282 280 276 270 267 268 266 258 262 258 258 256 238 231 231 234 229 217 223 219 218 217 217 220 214 213 214 225 233 242
277 280 273 281 288 285 273 270 273 280 286 287 282 284 282 278 273 269 272 269 266 260 254 243 242 235 226 224 224 219 206 212 207 216 212 216 213 214 218 207 224 233 239
282 276 279 281 286 288 277 273 279 284 286 287 286 282 278 277 276 270 269 271 266 257 251 238 234 225 223 217 213 207 204 206 209 212 215 211 214 214 215 213 218 224 229
273 267 265 273 279 281 282 278 279 283 285 284 288 281 276 272 272 270 265 266 266 253 249 234 231 223 217 212 207 205 200 206 206 210 210 211 210 212 211 214 226 223 224
268 276 285 287 286 281 277 276 279 284 286 284 285 284 275 269 266 264 265 265 265 250 243 231 227 220 215 211 206 199 197 203 202 202 203 205 210 204 212 216 217 216 223
291 284 283 283 283 284 281 276 278 281 281 282 287 281 272 270 262 257 259 262 259 246 237 228 222 216 210 206 205 195 200 197 197 206 200 197 203 215 221 222 221 229 235
294 297 296 291 290 285 282 280 279 280 281 284 282 275 274 270 262 254 252 255 255 241 228 222 216 207 201 200 203 198 192 194 203 200 201 196 204 221 205 214 220 227 239
295 297 290 284 284 283 282 281 280 280 281 283 278 275 278 260 261 253 251 248 249 231 221 215 205 199 194 199 201 190 188 185 188 193 193 196 205 226 206 205 217 220 228
293 291 287 285 284 278 281 282 282 282 281 280 276 276 267 266 263 253 256 248 240 224 217 205 197 193 196 197 193 178 176 182 181 180 193 203 202 214 211 209 216 222 226
284 289 285 280 279 284 285 281 281 283 282 280 282 280 271 267 265 256 257 242 226 220 206 196 189 190 200 187 179 172 177 179 177 179 193 204 198 211 211 207 215 219 237
291 289 286 285 286 285 288 287 286 284 282 277 272 270 269 271 265 269 247 230 230 208 192 186 183 188 189 175 170 169 174 174 176 184 192 203 206 210 214 209 219 228 223
291 290 288 288 287 286 286 285 281 282 278 277 274 272 272 272 268 248 228 240 198 191 179 169 171 178 171 169 170 171 169 172 176 185 186 204 206 206 210 215 216 211 209
289 288 286 284 286 284 278 278 280 281 278 280 282 279 283 259 230 224 238 201 182 175 168 174 167 164 167 167 169 172 169 177 180 186 198 213 198 203 208 204 203 202 207
285 285 284 281 280 280 279 278 278 280 281 279 279 276 258 231 251 234 182 170 177 172 165 170 168 169 169 171 174 174 174 170 179 193 202 195 195 199 197 200 204 201 198
289 286 283 282 281 280 280 281 283 274 280 273 289 314 113 151 146 153 154 161 161 164 169 169 161 162 169 170 174 172 171 178 194 182 180 194 197 194 196 192 181 183 185
Wind_Speed_850mb
37 33 31 20 14 7 13 14 21 26 69 66 62 54 52 37 30 33 37 50 60 58 72 78 66 58 57 54 48 43 41 54 51 41 34 35 40 44 37 43 38 36 37
40 39 23 21 17 14 17 21 21 27 31 46 71 63 48 56 52 55 32 33 57 69 78 98 86 79 67 68 65 49 51 43 45 36 24 32 29 42 44 31 38 38 37
50 47 36 26 20 12 24 25 40 37 31 39 38 50 68 76 63 58 59 76 52 57 71 89 82 84 75 81 68 60 52 35 32 48 36 16 21 22 28 30 29 36 33
26 32 32 25 20 11 11 20 26 33 37 46 48 39 49 59 66 75 67 57 55 64 70 74 85 87 87 91 73 55 48 44 40 32 49 43 33 14 22 19 25 28 32
30 22 23 14 11 7 11 12 16 25 28 33 42 49 36 38 49 60 67 89 61 73 67 80 84 85 97 100 75 49 43 31 47 40 37 34 36 43 37 42 33 34 26
24 24 20 17 15 12 13 12 16 12 22 28 32 43 51 53 48 40 39 56 92 78 86 115 96 102 100 90 74 58 44 45 67 54 46 35 28 29 37 37 41 37 35
23 30 24 20 17 18 17 15 13 13 16 18 25 30 40 46 50 52 53 48 47 63 77 85 80 86 97 97 73 63 62 70 61 66 57 43 42 36 36 41 35 39 21
21 13 17 20 22 22 21 19 18 17 20 16 21 27 33 36 39 42 44 48 57 66 62 65 69 76 78 92 95 84 72 66 66 57 65 51 49 42 37 42 37 44 32
20 23 31 30 28 26 25 23 23 22 20 24 25 25 30 36 40 49 56 52 59 68 58 62 66 72 69 75 80 79 72 67 66 59 54 49 44 47 37 38 38 34 36
28 34 38 36 35 32 31 31 29 28 28 27 27 30 31 34 39 44 51 55 65 69 65 64 73 84 65 62 70 62 66 64 62 53 42 46 44 45 38 42 43 30 31
29 33 35 33 36 37 37 35 33 35 36 36 35 35 35 38 41 44 49 52 56 66 76 81 69 72 64 67 76 76 67 63 59 46 44 52 46 40 40 39 32 31 30
31 34 33 32 35 34 36 33 34 36 37 40 41 43 44 44 46 48 49 56 61 64 65 65 70 73 70 73 76 71 58 58 47 46 48 50 42 49 44 38 34 31 31
33 34 34 35 34 38 34 33 33 33 34 39 44 50 56 54 54 56 55 54 54 57 61 61 61 63 66 68 70 69 61 55 49 47 56 48 48 48 47 41 32 33 32
29 33 39 42 39 38 38 39 41 42 44 45 46 52 56 63 65 60 59 60 59 55 63 65 65 68 66 68 62 58 59 56 47 57 52 45 48 49 43 35 36 31 30
38 42 41 45 45 47 49 51 50 50 51 57 59 57 59 62 67 71 66 59 64 55 63 66 69 72 70 70 67 65 61 59 54 55 47 48 44 41 33 30 35 33 35
40 40 46 52 57 55 54 57 58 61 62 63 69 70 64 64 69 73 71 64 63 58 64 71 74 75 76 77 75 68 63 62 55 54 46 42 45 43 45 42 37 37 41
47 54 55 57 60 59 57 57 62 66 68 74 78 72 66 68 69 68 70 72 65 61 71 74 75 78 82 79 78 70 68 60 57 51 48 44 37 47 41 42 45 41 38
50 57 55 58 60 65 67 65 68 71 74 81 80 75 71 73 72 69 72 72 65 67 74 79 79 80 84 76 76 81 57 55 49 49 52 51 38 36 32 29 38 39 34
56 58 66 71 71 73 78 73 75 78 81 86 84 88 75 70 73 69 67 69 64 72 80 80 80 80 81 79 81 81 52 48 47 43 40 39 34 34 40 32 29 28 33
68 67 73 74 76 82 74 71 78 77 83 83 75 79 73 73 71 65 63 63 72 74 79 83 80 79 85 83 77 71 47 50 44 39 35 40 35 37 35 35 29 32 29
77 73 72 76 78 76 75 72 72 81 82 79 85 80 75 69 67 63 69 65 70 75 81 81 77 75 79 77 75 66 52 47 45 38 33 38 46 36 30 35 32 30 30
80 78 81 81 77 67 60 69 79 79 75 68 72 70 68 66 64 71 76 74 63 84 80 76 72 71 69 79 77 67 51 46 43 36 35 35 39 35 30 34 34 30 30
83 82 83 85 82 73 71 77 72 70 66 69 71 80 81 78 91 76 75 73 77 78 74 79 83 72 87 88 84 66 52 46 41 40 39 36 33 35 34 35 30 25 24
82 76 76 68 67 66 58 65 70 67 64 74 77 78 80 63 65 88 77 75 78 89 79 85 77 76 92 92 83 72 55 58 44 33 37 33 33 34 35 34 32 28 28
70 64 62 61 58 58 56 56 60 56 62 67 73 71 103 126 99 91 77 88 87 87 72 68 79 94 95 95 79 73 52 41 36 42 34 34 36 36 34 32 32 29 27
59 58 55 56 60 53 51 52 52 54 60 66 60 66 51 57 100 91 82 77 69 65 64 71 75 67 78 74 66 62 49 46 39 30 29 36 39 37 35 33 30 26 21
Wind_Direction_850mb
234 212 202 225 228 191 254 239 226 207 215 251 246 252 254 244 242 232 236 236 257 251 242 241 248 249 232 230 234 245 246 256 265 273 276 271 271 296 284 251 254 255 248
221 223 227 233 235 251 256 256 253 235 218 220 241 227 228 239 262 270 241 249 244 249 251 251 254 253 236 231 233 250 249 248 254 256 266 275 277 269 280 259 243 251 252
231 221 230 235 231 217 244 252 249 248 248 246 247 253 244 241 237 237 252 251 267 274 265 256 249 248 239 228 232 245 241 232 238 266 250 265 258 284 248 239 237 247 254
216 225 221 217 227 205 234 251 256 257 244 240 246 255 251 247 244 252 250 243 275 283 283 264 258 241 237 225 232 241 248 251 241 239 262 249 242 274 270 235 248 228 240
200 213 220 217 219 220 234 234 257 265 268 256 249 253 258 256 253 247 241 242 253 271 275 278 263 245 234 229 223 239 238 253 265 240 240 261 250 249 261 275 255 221 234
205 205 214 232 227 227 230 236 252 253 265 263 258 258 260 261 257 249 256 243 232 252 254 264 253 243 238 226 235 225 249 274 258 248 232 234 239 238 243 258 259 255 248
230 226 230 252 252 262 253 253 245 266 273 261 261 264 267 264 261 253 241 240 242 242 239 249 251 235 236 231 226 236 253 261 248 242 242 232 238 244 250 263 258 263 229
234 233 258 268 272 267 269 266 270 276 278 285 269 256 259 264 264 266 259 249 246 244 244 248 248 240 232 238 237 243 240 254 249 242 252 224 235 235 244 253 253 257 257
248 258 267 270 268 268 270 269 278 279 282 283 284 275 264 262 261 256 247 250 250 241 239 246 246 249 244 240 243 239 243 246 242 246 246 233 233 236 240 243 237 254 269
264 272 276 275 271 269 268 268 270 277 279 281 279 278 271 268 263 261 271 267 256 246 241 240 246 251 246 236 232 233 237 238 237 242 238 231 224 236 230 233 230 249 253
281 288 284 279 276 270 268 268 271 277 280 282 280 280 276 271 269 267 263 253 264 265 251 248 241 248 243 227 234 237 234 230 233 232 223 228 221 224 223 218 226 238 243
286 282 282 283 284 279 271 267 272 277 282 284 286 282 280 276 270 267 268 266 258 262 258 258 256 238 231 231 234 229 217 223 219 218 217 217 220 214 213 214 225 233 242
277 280 273 281 288 285 273 270 273 280 286 287 282 284 282 278 273 269 272 269 266 260 254 243 242 235 226 224 224 219 206 212 207 216 212 216 213 214 218 207 224 233 239
282 276 279 281 286 288 277 273 279 284 286 287 286 282 278 277 276 270 269 271 266 257 251 238 234 225 223 217 213 207 204 206 209 212 215 211 214 214 215 213 218 224 229
273 267 265 273 279 281 282 278 279 283 285 284 288 281 276 272 272 270 265 266 266 253 249 234 231 223 217 212 207 205 200 206 206 210 210 211 210 212 211 214 226 223 224
268 276 285 287 286 281 277 276 279 284 286 284 285 284 275 269 266 264 265 265 265 250 243 231 227 220 215 211 206 199 197 203 202 202 203 205 210 204 212 216 217 216 223
291 284 283 283 283 284 281 276 278 281 281 282 287 281 272 270 262 257 259 262 259 246 237 228 222 216 210 206 205 195 200 197 197 206 200 197 203 215 221 222 221 229 235
294 297 296 291 290 285 282 280 279 280 281 284 282 275 274 270 262 254 252 255 255 241 228 222 216 207 201 200 203 198 192 194 203 200 201 196 204 221 205 214 220 227 239
295 297 290 284 284 283 282 281 280 280 281 283 278 275 278 260 261 253 251 248 249 231 221 215 205 199 194 199 201 190 188 185 188 193 193 196 205 226 206 205 217 220 228
293 291 287 285 284 278 281 282 282 282 281 280 276 276 267 266 263 253 256 248 240 224 217 205 197 193 196 197 193 178 176 182 181 180 193 203 202 214 211 209 216 222 226
284 289 285 280 279 284 285 281 281 283 282 280 282 280 271 267 265 256 257 242 226 220 206 196 189 190 200 187 179 172 177 179 177 179 193 204 198 211 211 207 215 219 237
291 289 286 285 286 285 288 287 286 284 282 277 272 270 269 271 265 269 247 230 230 208 192 186 183 188 189 175 170 169 174 174 176 184 192 203 206 210 214 209 219 228 223
291 290 288 288 287 286 286 285 281 282 278 277 274 272 272 272 268 248 228 240 198 191 179 169 171 178 171 169 170 171 169 172 176 185 186 204 206 206 210 215 216 211 209
289 288 286 284 286 284 278 278 280 281 278 280 282 279 283 259 230 224 238 201 182 175 168 174 167 164 167 167 169 172 169 177 180 186 198 213 198 203 208 204 203 202 207
285 285 284 281 280 280 279 278 278 280 281 279 279 276 258 231 251 234 182 170 177 172 165 170 168 169 169 171 174 174 174 170 179 193 202 195 195 199 197 200 204 201 198
289 286 283 282 281 280 280 281 283 274 280 273 289 314 113 151 146 153 154 161 161 164 169 169 161 162 169 170 174 172 171 178 194 182 180 194 197 194 196 192 181 183 185